Back to catalog

USA 181

AliveMilitaryLEO
NORAD 28537·PAYLOAD·🇺🇸 United States

Launched Feb 3, 2005 from Cape Canaveral Space Force Station

Loading…

Next Passes (next 24 hours)

TLE

StaleSource: Mike McCants

Epoch: Sep 5, 2026, 00:45 UTC

1 28537U 05004A   26248.03181173 0.00000000  00000-0  00000-0 0    03
2 28537  63.3938 220.8267 0565010   5.1451 354.8549 13.41279753    09

Track USA 181 in real time with AllMySat

Download on the App Store